Theta_e
298 296 295 295 294 293 292 291 291 291 292 292 292 292 292 293 293 293 293 293 294 295 295 295 295 295 295 295 294 294 294 294
297 294 292 292 292 291 291 290 289 289 290 290 290 290 289 288 290 290 291 291 292 292 292 293 293 294 294 293 294 293 293 293
295 293 291 290 290 289 289 289 288 287 288 288 288 287 287 287 286 286 287 290 291 290 290 291 291 292 292 292 292 292 292 292
292 293 291 289 289 288 287 287 287 286 287 287 287 286 284 283 284 285 285 285 286 290 290 290 290 290 291 291 291 291 291 291
291 291 291 289 288 288 287 286 286 285 285 286 285 285 284 283 283 283 283 284 284 285 285 288 289 289 289 289 290 290 290 290
291 291 290 290 288 288 287 287 286 285 284 284 284 283 282 282 282 282 283 283 283 283 284 285 287 288 288 288 288 288 288 289
290 290 290 290 288 287 287 287 285 284 284 283 282 282 282 281 280 281 282 282 282 283 283 284 285 286 287 287 287 287 287 287
290 290 289 289 289 288 287 286 285 284 283 283 282 282 281 280 280 280 280 281 281 282 283 283 284 285 286 287 287 287 287 287
291 290 289 289 288 287 286 285 284 284 283 283 282 281 281 279 278 278 279 279 279 280 281 282 283 284 285 286 287 287 287 287
290 290 289 288 287 285 284 283 283 283 282 282 281 281 280 278 277 277 277 277 278 278 279 280 281 282 284 285 286 287 287 287
290 289 288 286 284 283 283 282 282 281 280 280 280 279 278 277 277 276 276 276 276 276 277 278 279 280 282 283 285 286 286 287
289 287 285 284 282 280 280 279 279 278 278 277 277 277 276 276 275 275 274 274 274 274 275 276 277 279 281 282 284 285 286 286
285 283 282 280 278 277 277 276 275 274 273 273 273 273 273 272 272 272 272 272 272 273 274 275 276 278 280 282 283 284 285 286
280 278 277 276 275 274 273 272 270 269 268 268 268 268 268 269 269 270 270 271 271 272 273 274 275 277 279 281 282 283 284 285
276 275 274 273 271 270 269 268 266 265 265 265 265 265 265 266 266 267 268 268 269 270 271 272 274 275 278 281 282 282 282 282
273 272 271 270 268 267 266 265 264 264 264 264 264 264 264 264 265 265 265 266 267 268 269 270 271 272 274 276 280 281 281 281
270 269 268 267 266 265 264 264 263 263 263 264 264 264 264 264 264 265 266 267 267 268 269 270 271 272 274 275 277 278 280 283
267 266 265 265 264 264 263 263 263 262 262 263 263 263 264 264 264 265 265 265 266 267 268 269 270 272 273 275 276 278 280 283
264 264 263 263 263 264 263 263 262 262 262 263 263 264 264 264 265 265 265 265 265 266 267 268 269 271 272 274 276 279 280 284
263 263 263 264 263 263 263 262 262 262 262 263 264 265 265 265 265 265 266 266 266 267 267 268 269 271 273 275 276 280 282 283
Wind_Speed
12 13 13 14 16 19 20 19 18 18 17 17 17 18 18 18 19 18 16 15 16 15 15 20 22 26 28 29 29 31 32 33
8 11 12 14 17 18 18 18 19 17 17 17 17 16 17 18 18 21 20 18 16 17 17 18 22 23 26 28 29 31 32 33
6 8 13 15 16 15 14 15 16 16 15 14 15 17 19 20 22 25 23 22 19 17 16 17 19 22 26 27 29 30 30 33
7 9 10 11 11 11 12 12 12 15 14 15 16 20 24 25 24 25 26 25 22 22 20 17 18 21 24 28 29 30 32 32
6 9 9 10 10 11 11 10 11 13 15 15 16 16 19 24 26 26 26 24 25 24 22 22 21 21 24 26 28 29 30 33
5 8 11 12 14 14 14 15 15 15 16 16 17 19 24 26 27 28 27 28 27 27 26 23 20 21 23 25 27 30 31 33
5 8 10 11 12 14 15 16 18 25 27 27 27 26 22 22 23 22 24 28 27 29 27 26 22 21 22 25 28 29 31 33
8 10 11 12 12 14 15 15 18 25 28 31 29 27 27 29 29 25 23 24 24 27 25 27 26 22 22 24 29 31 33 33
14 16 15 15 15 16 15 17 18 20 22 25 24 27 28 28 27 28 26 27 27 27 27 29 31 25 24 26 28 31 34 35
18 17 17 16 16 15 15 18 19 21 23 24 24 25 26 29 32 31 28 30 31 31 31 30 34 30 29 27 28 30 33 33
18 15 17 18 17 16 19 20 22 23 25 26 26 27 29 29 30 33 31 32 32 35 35 35 38 37 33 30 29 30 31 31
13 14 17 18 20 20 22 22 24 25 27 28 29 30 32 34 34 33 34 34 37 37 40 38 38 40 38 35 32 32 31 30
14 17 20 20 20 23 24 26 27 28 31 31 31 32 33 34 36 35 35 35 37 35 37 38 39 37 36 36 35 35 32 33
13 18 23 19 18 24 27 29 32 33 33 33 33 32 32 33 34 33 32 32 33 32 33 35 35 34 36 36 36 35 35 36
14 17 22 21 22 23 27 28 29 31 32 31 31 32 31 31 30 31 30 30 31 30 30 33 34 34 32 25 25 28 30 33
15 19 23 25 26 25 26 27 29 30 30 30 29 29 31 30 30 31 32 34 35 34 35 33 32 34 34 34 28 23 26 25
17 19 23 26 28 28 27 27 29 30 29 29 31 31 31 31 32 32 37 39 41 43 45 43 48 49 47 46 45 42 39 29
19 22 24 26 28 29 28 27 29 31 32 31 31 31 31 30 29 27 34 37 38 39 40 42 44 45 45 44 43 41 39 34
19 23 25 26 28 28 29 30 30 31 33 32 31 31 30 31 31 31 29 25 33 36 35 36 37 38 38 38 38 35 37 33
21 24 22 24 28 28 29 29 30 30 30 30 31 31 32 32 31 30 30 29 30 33 34 30 31 30 31 32 33 27 18 23
Wind_Direction
24 23 23 24 24 29 32 29 23 22 22 17 16 16 10 7 5 350 333 317 300 281 267 252 250 240 230 228 228 228 227 223
23 15 17 24 27 26 20 16 15 15 13 11 10 9 8 10 5 360 355 338 321 303 286 268 261 247 241 236 234 231 231 228
13 23 19 13 16 17 13 10 3 1 4 7 7 8 6 360 358 2 358 355 343 326 301 283 273 262 248 241 239 238 237 232
16 14 15 4 0 359 359 356 353 350 353 356 358 358 360 0 355 353 353 354 352 344 328 308 288 273 262 251 246 241 238 241
349 351 350 349 347 345 346 348 341 343 344 345 346 344 343 345 349 348 347 343 344 343 334 325 312 290 275 266 257 251 246 241
318 310 316 327 327 329 330 332 334 331 331 329 328 327 325 331 334 336 334 335 333 333 332 325 308 298 293 277 267 257 254 247
287 293 291 282 294 304 313 314 317 319 318 320 321 323 319 318 317 320 319 321 320 321 318 317 309 296 278 270 266 263 257 254
286 298 311 307 295 292 296 293 297 305 309 312 312 311 311 313 316 315 308 306 305 305 304 302 300 295 286 275 267 262 259 259
289 298 306 309 308 301 291 286 288 286 289 294 298 297 301 305 305 306 306 302 300 295 294 294 293 293 289 281 270 264 260 254
298 295 303 308 316 313 303 297 292 289 292 290 288 287 288 290 298 299 299 297 295 293 291 287 287 288 286 284 273 265 261 258
312 308 307 318 323 315 306 303 300 301 296 293 289 284 282 282 285 290 289 287 288 288 285 283 281 282 278 277 271 267 264 262
309 311 314 325 328 315 309 305 305 304 299 296 291 288 285 284 283 285 285 283 282 281 282 279 274 274 273 270 263 258 262 260
323 314 315 324 328 314 309 313 313 309 302 298 295 293 290 288 287 285 283 280 279 279 279 278 276 272 270 266 260 258 256 258
323 314 311 320 320 310 309 313 312 310 306 304 302 297 294 291 289 287 284 279 278 278 276 277 278 277 271 266 263 262 259 257
321 309 305 316 313 306 308 310 308 304 304 304 302 300 297 292 289 286 284 282 279 277 276 277 277 273 270 266 264 259 261 263
313 305 304 312 309 310 309 309 306 304 302 301 298 297 296 290 287 284 280 278 277 275 274 274 273 271 275 274 267 261 253 266
304 302 302 305 306 308 309 308 304 302 302 301 300 297 294 292 291 287 287 287 284 282 280 278 273 274 272 270 267 267 269 260
304 303 301 303 303 306 307 306 303 298 298 297 297 294 293 293 292 293 292 290 288 286 284 280 279 276 273 271 269 266 262 251
300 296 299 300 298 306 309 305 297 295 295 293 292 292 292 292 291 290 290 292 292 290 288 286 283 280 276 272 266 263 252 244
299 296 300 302 303 312 309 305 301 299 296 296 295 295 294 293 291 289 289 288 288 293 294 289 289 285 278 270 258 266 240 243